User: anonymous   Login
Location: Unspecified
(0.0000°N, 0.0000°E)
Time: 21:15:01
(UTC+02:00)
Language:

Meteor 1-31 Rocket - Orbit

View from above orbital plane
View from above orbital plane
View from above satellite
View from above satellite

Ground track
Ground track

The orbit data is extracted from the following two-line orbital elements,

1 12586U 81065B   18170.94192551 +.00000287 +00000-0 +21401-4 0  9994
2 12586 097.5382 150.7536 0019533 022.3061 337.9014 15.10301913007840
Epoch (UTC): 19 June 2018 22:36:22
Eccentricity: 0.0019533
inclination: 97.5382°
perigee height: 522 km
apogee height: 549 km
right ascension of ascending node: 150.7536°
argument of perigee: 22.3061°
revolutions per day: 15.10301913
mean anomaly at epoch: 337.9014°
orbit number at epoch: 784

The dashed part of the orbit path shows where the satellite is in the earth's shadow,  

DLR